GW4497 Weather Reports


time (UTC)temp
C
wind
direction
speed
KPH
gust
KPH
rain 1hr
cm
rain 24hr
cm
rain mn
cm
humidity
%
barometer
mb
20260504174004 16 280 3.2 6.4 0.00 0.43 0.28 86 1010.8
20260504173504 17 276 3.2 6.4 0.00 0.43 0.28 86 1010.7
20260504173004 17 264 3.2 6.4 0.00 0.43 0.28 85 1011.1
20260504172506 16 252 3.2 4.8 0.00 0.43 0.28 84 1010.7
20260504172219 16 263 3.2 4.8 0.00 0.43 0.28 83 1010.7
20260504171505 16 304 1.6 4.8 0.00 0.43 0.28 83 1010.8
20260504171005 16 332 1.6 3.2 0.03 0.43 0.28 84 1010.9
20260504151003 16 294 4.8 8.0 0.10 0.33 0.15 86 1011.5
20260504150505 17 297 3.2 8.0 0.10 0.33 0.15 86 1011.8
20260504141006 16 207 9.7 16.1 0.00 0.23 0.05 82 1012.0
20260504140504 17 218 6.4 14.5 0.00 0.23 0.05 82 1012.1
20260504130722 17 175 6.4 16.1 0.05 0.23 0.05 81 1012.0
20260504130219 17 232 9.7 24.1 0.05 0.23 0.05 80 1011.8
20260504110716 18 206 6.4 17.7 0.00 0.15 0.00 74 1012.5
20260504100503 20 171 9.7 19.3 0.00 0.15 0.00 67 1012.3
20260504082003 18 305 4.8 12.9 0.00 0.15 0.00 72 1012.6
20260504081503 17 317 4.8 12.9 0.00 0.15 0.00 73 1012.5
20260504081003 18 29 3.2 8.0 0.00 0.15 0.00 71 1012.7
20260504080503 18 344 3.2 8.0 0.00 0.15 0.00 72 1012.7
20260504050503 14 330 1.6 4.8 0.00 0.15 0.00 93 1013.6
20260504050003 14 322 3.2 4.8 0.00 0.15 0.00 93 1013.4
20260504045718 14 314 3.2 4.8 0.00 0.15 0.00 93 1013.2
20260504045003 13 359 3.2 4.8 0.00 0.15 0.00 93 1013.3
20260504044504 13 12 1.6 6.4 0.00 0.15 0.00 93 1013.0
20260504044003 13 349 3.2 8.0 0.00 0.15 0.00 93 1013.2
20260504043503 13 356 4.8 8.0 0.00 0.15 0.00 93 1013.2
20260504043003 13 10 3.2 8.0 0.00 0.15 0.00 93 1013.1
20260504042503 13 19 1.6 4.8 0.00 0.15 0.00 93 1013.3
20260504042003 13 353 1.6 4.8 0.00 0.15 0.00 93 1013.4
20260504041503 14 340 1.6 4.8 0.00 0.15 0.00 93 1013.3
20260504041003 14 356 3.2 4.8 0.00 0.15 0.00 93 1013.4
20260504040718 14 18 1.6 4.8 0.00 0.15 0.00 93 1013.4
20260504040003 14 55 1.6 4.8 0.00 0.15 0.00 93 1013.3
20260504035503 13 33 3.2 6.4 0.00 0.15 0.00 93 1013.5
20260504035003 13 44 1.6 6.4 0.00 0.15 0.00 93 1013.4
20260504034503 14 41 1.6 4.8 0.00 0.15 0.00 93 1013.6
20260504034003 13 28 3.2 4.8 0.00 0.15 0.00 93 1013.7
20260504033503 14 35 1.6 4.8 0.00 0.15 0.00 93 1013.9
20260504033003 14 36 1.6 4.8 0.00 0.15 0.00 93 1013.7
20260504032503 14 24 1.6 3.2 0.00 0.15 0.00 93 1013.8
20260504032217 14 47 0.0 3.2 0.00 0.15 0.00 93 1013.6
20260504031503 13 305 1.6 6.4 0.00 0.15 0.00 93 1013.6
20260504031003 14 303 3.2 6.4 0.00 0.15 0.00 93 1013.7
20260504030503 13 315 3.2 6.4 0.00 0.15 0.00 93 1013.6
20260504030003 13 314 3.2 6.4 0.00 0.15 0.00 93 1013.7
20260504025503 13 299 1.6 6.4 0.00 0.15 0.00 93 1013.8
20260504025003 13 289 1.6 6.4 0.00 0.15 0.00 93 1013.6
20260504024503 14 6 1.6 4.8 0.00 0.15 0.00 93 1013.6
20260504024003 13 36 1.6 4.8 0.00 0.15 0.00 93 1013.6
20260504023717 13 33 1.6 4.8 0.00 0.15 0.00 93 1013.4
20260504023003 13 40 1.6 4.8 0.00 0.15 0.00 93 1013.8
20260504022503 13 17 1.6 3.2 0.00 0.15 0.00 93 1013.7
20260504022218 13 19 1.6 3.2 0.00 0.15 0.00 93 1013.5
20260504021503 13 306 1.6 4.8 0.00 0.15 0.00 93 1013.6
20260504021003 13 333 3.2 6.4 0.00 0.15 0.00 93 1013.7
20260504020503 14 27 3.2 6.4 0.00 0.15 0.00 93 1013.6
20260504020003 13 43 3.2 6.4 0.00 0.15 0.00 93 1013.5
20260504015503 13 50 1.6 6.4 0.00 0.15 0.00 93 1013.7
20260504015003 13 41 1.6 6.4 0.00 0.15 0.00 93 1013.8
20260504014503 13 26 1.6 6.4 0.00 0.15 0.00 93 1013.9
20260504014003 13 19 3.2 6.4 0.00 0.15 0.00 93 1013.8
20260504013503 13 31 3.2 6.4 0.00 0.15 0.00 93 1013.9
20260504013003 13 46 3.2 6.4 0.00 0.15 0.00 93 1014.0
20260504012717 13 47 3.2 6.4 0.00 0.15 0.00 93 1013.6
20260504012003 13 311 1.6 4.8 0.00 0.15 0.00 93 1013.8
20260504011503 13 329 1.6 4.8 0.00 0.15 0.00 93 1014.1
20260504011003 13 335 1.6 4.8 0.00 0.15 0.00 93 1013.9
20260504010503 13 320 1.6 4.8 0.00 0.15 0.00 93 1014.2
20260504010003 13 300 1.6 4.8 0.00 0.15 0.00 93 1014.0
20260504005717 13 305 1.6 4.8 0.00 0.15 0.00 93 1014.1
20260504005003 13 337 1.6 4.8 0.00 0.15 0.00 93 1014.2
20260504004503 13 69 1.6 6.4 0.00 0.15 0.00 93 1014.3
20260504004003 13 61 1.6 6.4 0.00 0.15 0.00 93 1014.4
20260504003503 13 20 1.6 4.8 0.00 0.15 0.00 93 1014.2
20260504003003 13 268 1.6 4.8 0.00 0.15 0.00 93 1014.4
20260504002503 13 296 1.6 4.8 0.00 0.15 0.00 92 1014.4
20260504002003 13 332 3.2 6.4 0.00 0.15 0.00 93 1014.5
20260504001503 13 324 3.2 6.4 0.00 0.15 0.00 92 1014.3
20260504001217 13 321 3.2 6.4 0.00 0.15 0.00 92 1014.5
20260504000503 13 93 1.6 4.8 0.00 0.15 0.00 92 1014.4
20260504000219 13 79 1.6 4.8 0.00 0.15 0.00 92 1014.3
20260503235503 13 312 1.6 4.8 0.00 0.15 0.00 92 1014.5
20260503235003 13 283 1.6 4.8 0.00 0.15 0.00 92 1014.6
20260503234503 13 294 1.6 6.4 0.00 0.15 0.00 92 1014.5
20260503234003 13 330 1.6 6.4 0.00 0.15 0.00 92 1014.7
20260503233503 13 339 1.6 4.8 0.00 0.15 0.00 92 1014.6
20260503233003 13 339 1.6 4.8 0.00 0.15 0.00 92 1014.7
20260503232718 14 346 1.6 4.8 0.00 0.15 0.00 92 1014.6
20260503232003 13 327 3.2 4.8 0.00 0.15 0.00 92 1014.6
20260503231503 14 314 3.2 4.8 0.00 0.15 0.00 92 1014.8
20260503231003 14 319 3.2 4.8 0.00 0.15 0.00 92 1014.9
20260503230718 14 319 3.2 4.8 0.00 0.15 0.00 92 1014.6
20260503230217 14 300 1.6 4.8 0.00 0.15 0.00 92 1014.6
20260503225718 14 291 1.6 4.8 0.00 0.15 0.00 92 1014.9
20260503225003 14 303 1.6 4.8 0.00 0.15 0.00 92 1014.9
20260503224503 14 320 3.2 6.4 0.00 0.15 0.00 92 1014.9
20260503224217 14 326 3.2 6.4 0.00 0.15 0.00 92 1014.9
20260503223503 14 312 4.8 8.0 0.00 0.15 0.00 92 1014.9
20260503223003 14 296 3.2 8.0 0.00 0.15 0.00 92 1014.9
20260503222718 14 306 3.2 6.4 0.00 0.15 0.00 92 1014.9
20260503222003 14 330 3.2 6.4 0.00 0.15 0.00 92 1014.8
20260503221503 14 310 3.2 6.4 0.00 0.15 0.00 92 1015.0
20260503221003 14 294 1.6 6.4 0.00 0.15 0.00 92 1015.0
20260503220503 14 10 1.6 6.4 0.00 0.15 0.00 92 1015.0
20260503220003 14 340 3.2 6.4 0.00 0.15 0.00 92 1014.7
20260503215718 14 333 3.2 6.4 0.00 0.15 0.15 92 1015.0
20260503215003 14 309 3.2 4.8 0.00 0.15 0.15 92 1015.0
20260503214503 14 306 3.2 6.4 0.03 0.15 0.15 92 1015.1
20260503214003 14 340 3.2 6.4 0.03 0.15 0.15 91 1015.1
20260503213503 14 333 1.6 4.8 0.03 0.15 0.15 91 1015.2
20260503213003 14 325 3.2 6.4 0.03 0.15 0.15 91 1015.3
20260503212717 14 329 3.2 6.4 0.03 0.15 0.15 91 1015.1
20260503212003 14 311 3.2 6.4 0.05 0.15 0.15 91 1015.3
20260503211503 14 298 3.2 6.4 0.05 0.15 0.15 91 1015.1
20260503211003 14 312 3.2 8.0 0.05 0.15 0.15 91 1015.0
20260503210503 14 323 3.2 8.0 0.05 0.15 0.15 91 1015.0
20260503210218 14 103 1.6 6.4 0.08 0.15 0.15 91 1015.0
20260503205717 14 124 3.2 6.4 0.08 0.15 0.15 91 1015.1
20260503205003 14 84 3.2 6.4 0.08 0.15 0.15 91 1015.4
20260503204503 14 21 3.2 6.4 0.08 0.15 0.15 90 1015.5
20260503204003 14 330 3.2 8.0 0.08 0.15 0.15 90 1015.3
20260503203503 14 338 4.8 8.0 0.08 0.13 0.13 90 1015.4
20260503203003 14 340 4.8 8.0 0.08 0.13 0.13 90 1015.2
20260503202503 14 308 3.2 8.0 0.08 0.13 0.13 90 1015.2
20260503202003 14 238 1.6 6.4 0.05 0.13 0.13 89 1015.5
20260503201503 14 314 1.6 6.4 0.05 0.10 0.10 89 1015.3
20260503201003 14 13 3.2 6.4 0.05 0.10 0.10 89 1015.0
20260503200503 14 15 3.2 6.4 0.03 0.10 0.10 89 1015.1
20260503200003 14 23 3.2 6.4 0.03 0.08 0.08 89 1015.3
20260503195503 14 38 1.6 4.8 0.03 0.08 0.08 89 1015.2
20260503195003 14 78 1.6 6.4 0.03 0.08 0.08 88 1015.1
20260503194503 14 37 3.2 6.4 0.00 0.08 0.08 88 1015.0
20260503194003 14 326 1.6 6.4 0.03 0.08 0.08 88 1015.0
20260503193717 15 316 1.6 6.4 0.03 0.08 0.08 88 1014.8
20260503193003 14 3 3.2 6.4 0.05 0.05 0.05 88 1014.7
20260503192503 15 29 3.2 6.4 0.05 0.05 0.05 88 1014.6
20260503192218 15 43 3.2 6.4 0.05 0.05 0.05 87 1014.7
20260503191503 15 51 1.6 4.8 0.05 0.05 0.05 87 1015.0
20260503191003 15 15 3.2 6.4 0.05 0.05 0.05 87 1015.0
20260503190503 15 345 3.2 6.4 0.05 0.05 0.05 87 1014.9
20260503190217 15 347 3.2 6.4 0.05 0.05 0.05 87 1015.0
20260503185503 15 345 3.2 4.8 0.05 0.05 0.05 86 1014.9
20260503185217 15 349 3.2 4.8 0.05 0.05 0.05 86 1014.9
20260503184716 15 29 3.2 6.4 0.05 0.05 0.05 85 1015.0
20260503184003 15 13 3.2 6.4 0.05 0.05 0.05 83 1015.0
20260503183503 16 84 1.6 4.8 0.03 0.03 0.03 82 1014.7
20260503183003 16 129 1.6 3.2 0.03 0.03 0.03 81 1014.6
20260503182503 16 169 1.6 3.2 0.00 0.00 0.00 80 1014.5
20260503182003 16 147 1.6 6.4 0.00 0.00 0.00 79 1014.6
20260503181504 16 121 1.6 6.4 0.00 0.00 0.00 79 1014.5
20260503181003 16 106 3.2 9.7 0.00 0.00 0.00 79 1014.6
20260503180503 16 112 3.2 9.7 0.00 0.00 0.00 80 1014.7
20260503180003 16 132 3.2 4.8 0.00 0.00 0.00 80 1014.5
20260503175503 16 116 3.2 9.7 0.00 0.00 0.00 80 1014.4
20260503175003 16 106 4.8 9.7 0.00 0.00 0.00 81 1014.4
20260503174503 16 100 4.8 11.3 0.00 0.00 0.00 81 1014.6